This is the latest recevied weather packets stored in our database for station/object N4AN. If no packets are shown the sender has not sent any weather packets the latest 10 day(s).
| Time | Temp. | Humidity | Pressure | Rain* | Wind** | Luminosity | Snow |
|---|---|---|---|---|---|---|---|
| 1787395615 | 28.89° C | 79% | 1011.2 hPa | 0 mm | - | - | - |
| 1787395311 | 28.33° C | 80% | 1011.1 hPa | 0 mm | - | - | - |
| 1787395011 | 28.33° C | 79% | 1011.1 hPa | 0 mm | - | - | - |
| 1787394710 | 28.33° C | 79% | 1011.2 hPa | 0 mm | - | - | - |
| 1787394410 | 28.89° C | 79% | 1011.2 hPa | 0 mm | - | - | - |
| 1787394110 | 28.89° C | 78% | 1011.2 hPa | 0 mm | - | - | - |
| 1787393810 | 29.44° C | 77% | 1011.1 hPa | 0 mm | - | - | - |
| 1787393509 | 29.44° C | 79% | 1011.3 hPa | 0 mm | - | - | - |
| 1787393209 | 28.33° C | 81% | 1011.2 hPa | 0 mm | - | - | - |
| 1787392908 | 28.33° C | 80% | 1011.1 hPa | 0 mm | - | - | - |
| 1787392738 | 28.89° C | 80% | 1011.1 hPa | 0 mm | - | - | - |
| 1787392609 | 28.89° C | 80% | 1011.1 hPa | 0 mm | - | - | - |
| 1787392308 | 28.89° C | 79% | 1010.9 hPa | 0 mm | - | - | - |
| 1787392004 | 29.44° C | 79% | 1010.9 hPa | 0 mm | - | - | - |
| 1787391704 | 29.44° C | 77% | 1010.8 hPa | 0 mm | - | - | - |
| 1787391404 | 30° C | 76% | 1010.8 hPa | 0 mm | - | - | - |
| 1787391103 | 30° C | 78% | 1010.8 hPa | 0 mm | - | - | - |
| 1787390803 | 28.89° C | 80% | 1010.9 hPa | 0 mm | - | - | - |
| 1787390203 | 28.89° C | 81% | 1010.9 hPa | 0 mm | - | - | - |
| 1787389902 | 28.33° C | 81% | 1010.8 hPa | 0 mm | - | - | - |
| 1787389602 | 28.33° C | 80% | 1010.7 hPa | 0 mm | - | - | - |
| 1787389302 | 28.89° C | 80% | 1010.7 hPa | 0 mm | - | - | - |
| 1787389047 | 28.89° C | 80% | 1010.7 hPa | 0 mm | - | - | - |
| 1787389001 | 28.89° C | 80% | 1010.7 hPa | 0 mm | - | - | - |
| 1787388701 | 29.44° C | 79% | 1010.6 hPa | 0 mm | - | - | - |
* Rain latest hour (hover to see other rain measurements)
** Current wind speed in m/s (hover to see current wind gust speed)